Regional Weather Roundup
Issued by NWS Boston, MA

Home | Current Version | Previous Version | Text Only | Print | Product List | Glossary On
Versions: 1 2 3 4 5 6 7 8 9 10 11 12 13 14 15 16 17 18 19 20 21 22 23 24 25 26 27 28 29 30 31 32 33 34 35 36 37 38 39 40 41 42 43 44 45 46 47 48 49 50
000
ASUS41 KBOX 051810
RWRBOX

REGIONAL WEATHER ROUNDUP
NATIONAL WEATHER SERVICE TAUNTON MA
200 PM EDT SUN JUL 05 2015

NOTE:  "FAIR" INDICATES FEW OR NO CLOUDS BELOW 12,000 FEET WITH NO
SIGNIFICANT WEATHER AND/OR OBSTRUCTIONS TO VISIBILITY.  THE FOLLOWING
OBSERVATION LOCATIONS DO NOT REPORT PRESENT WEATHER...PROVINCETOWN...
SMITHFIELD...BLOCK ISLAND...KEENE...AND OXFORD.

MAZALL-051900-
EASTERN MASSACHUSETTS

CITY           SKY/WX    TMP DP  RH WIND       PRES   REMARKS
BOSTON         MOSUNNY   80  57  45 SE6       30.06F
6HR MIN TEMP:  67; 6HR MAX TEMP:  83;

BEVERLY        SUNNY     81  58  45 VRB5      30.05F
LAWRENCE       MOSUNNY   81  60  48 NW5       30.08S
BEDFORD        MOSUNNY   80  59  48 W5        30.05F
BLUE HILL        N/A     80  59  48 VRB5      30.08F
NORWOOD        MOSUNNY   83  59  44 VRB6      30.06F
MARSHFIELD     MOSUNNY   81  61  50 E6        30.08F
PLYMOUTH       MOSUNNY   81  60  48 W8        30.07F
TAUNTON        SUNNY     85  59  41 W7        30.06F
NEW BEDFORD    MOSUNNY   82  61  48 SW8       30.06F
$$

MAZALL-051900-
CAPE COD AND THE ISLANDS

CITY           SKY/WX    TMP DP  RH WIND       PRES   REMARKS
FALMOUTH       SUNNY     77  64  65 SW14      30.09S
HYANNIS        PTSUNNY   77  62  59 SW14      30.07S
CHATHAM        SUNNY     76  66  71 SW9       30.09S
PROVINCETOWN   SUNNY     82  19   9 NW8       30.08S
NANTUCKET      SUNNY     74  63  68 W16       30.10S
MARTHAS VNYRD  SUNNY     76  64  66 SW14      30.10S
$$

MAZALL-051900-
CENTRAL AND WESTERN MASSACHUSETTS

CITY           SKY/WX    TMP DP  RH WIND       PRES   REMARKS
WORCESTER      SUNNY     79  57  46 NW3       30.12S
6HR MIN TEMP:  65; 6HR MAX TEMP:  79;

FITCHBURG      SUNNY     83  56  39 N7        30.08F
ORANGE         SUNNY     80  58  46 VRB7      30.09S
SPRINGFIELD    MOSUNNY   81  58  45 NW3       30.08S
WESTFIELD      MOSUNNY   82  58  43 CALM      30.09S
NORTH ADAMS    SUNNY     79  60  52 VRB5      30.11S
PITTSFIELD     SUNNY     77  57  50 W12       30.13S
$$

RIZALL-051900-
RHODE ISLAND

CITY           SKY/WX    TMP DP  RH WIND       PRES   REMARKS
PROVIDENCE     MOSUNNY   82  60  47 W12       30.08F
6HR MIN TEMP:  67; 6HR MAX TEMP:  83;

NEWPORT        SUNNY     76  62  62 S10G20    30.09F
BLOCK ISLAND   SUNNY     75  63  64 SW14G20   30.12S
SMITHFIELD     MOSUNNY   81  59  47 W6        30.09S
WESTERLY       SUNNY     77  60  55 SW12      30.11S
$$

CTZALL-051900-
CONNECTICUT

CITY           SKY/WX    TMP DP  RH WIND       PRES   REMARKS
BRADLEY INTL   MOSUNNY   82  59  45 NW3       30.09S
6HR MIN TEMP:  65; 6HR MAX TEMP:  82;

HARTFORD       PTSUNNY   82  60  47 S9        30.09S
BRIDGEPORT     SUNNY     80  63  55 SW12      30.11F
DANBURY        SUNNY     79  58  48 VRB5      30.13F
GROTON         SUNNY     75  62  64 SW13      30.09F
NEW HAVEN      MOSUNNY   75  64  68 SW10      30.12S
CHESTER        NOT AVBL
MERIDEN        MOSUNNY   83  61  47 W6        30.09F
WILLIMANTIC    MOSUNNY   81  61  50 VRB7      30.10F
OXFORD         MOSUNNY   79  59  50 CALM      30.15S
$$

MEZ002-015-021-024-NHZ003-005-008-011-012-014-VTZ005-008-051900-
NORTHERN NEW ENGLAND

CITY           SKY/WX    TMP DP  RH WIND       PRES   REMARKS
PORTLAND ME    MOSUNNY   79  61  53 S10       30.02F
6HR MIN TEMP:  65; 6HR MAX TEMP:  82;

BANGOR ME      PTSUNNY   78  59  51 NW7       29.98F
CONCORD NH     SUNNY     83  57  41 NW9       30.05F
MANCHESTER NH  MOSUNNY   82  58  43 VRB7      30.04F
NASHUA NH      MOSUNNY   83  59  44 W9        30.07S
PORTSMOUTH NH  MOSUNNY   83  60  45 SW8       30.03F
JAFFREY NH     SUNNY     79  56  45 VRB7      30.11S
KEENE NH       MOSUNNY   81  57  44 W3        30.08S
BURLINGTON VT  PTSUNNY   80  59  48 N5        30.08S
MT. WASHINGTON FOG       48  48 100 NW36        N/A  VSB 0
$$

NYZ052-076-051900-
EASTERN NEW YORK

CITY           SKY/WX    TMP DP  RH WIND       PRES   REMARKS
ALBANY         PTSUNNY   80  59  48 NW9       30.11S
6HR MIN TEMP:  64; 6HR MAX TEMP:  81;

NEW YORK CITY  PTSUNNY   82  58  43 W6        30.11S
6HR MIN TEMP:  72; 6HR MAX TEMP:  83;

$$

ANZALL-051900-
MARINE OBSERVATIONS

STATION/POSITION TIME  TEMP    WIND        PRES    VSBY  WAVE
                       AIR SEA DIR/SP/G                  HT/PER
                 (UTC) (F)     (DEG/KT/KT) (MB)    (MI)  (FT/S)
BOSTON BUOY      1750   71 65  220/  4/  6 1018.2F         1/ 8
BUZZARDS BAY     1700          230/ 13/ 14 1019.9F
NANTUCKET SOUND  1750   68 69  240/ 16/ 19 1018.5F         2/ 3
MASS BAY-STELLWA 1704   68 63  200/  4/  6 1017.2R  1 7/8  1/ 8
ISLE OF SHOALS   1800   74     170/ 10/ 10 1017.0F
S OF BLOCK IS    1708      65                N/A           4/ 9
$$

......................KEY.........................
  SKY/WX - SKY CONDITION/PRESENT WEATHER
  TMP    - TEMPERATURE IN FAHRENHEIT
  DWPT   - DEWPOINT IN FAHRENHEIT
  RH     - RELATIVE HUMIDITY IN PERCENT
  WIND   - DIRECTION AND SPEED IN MPH
  PRES   - MEAN SEA LEVEL PRESSURE IN INCHES OF HG
  WCI    - WIND CHILL INDEX
  VSB    - VISIBILITY IN MILES
  HX     - HEAT INDEX
  TC     - TEMPERATURE IN CELSIUS
  VRB    - VARIABLE WIND DIRECTION
  N/A    - NOT AVAILABLE


USA.gov is the U.S. government's official web portal to all federal, state and local government web resources and services.